STARLINK-32076, 60350

Orbit data source: Space-Track

STARLINK-32076, 60350 is a payload satellite owned by SpaceX/Seattle (US) in LEO that was launched on Fri, 02 Aug 2024 UTC via an FALCON 9 launch vehicle from the Air Force Eastern Test Range (AFETR). Payload-class satellites include a variety of spacecraft equipped with specific instruments for various scientific and technological missions. These include communications satellites like Starlink; space stations such as the ISS; scientific satellites like the Hubble; Earth observation satellites from companies like Planet Labs, Umbra, and HawkEye 360; GPS; miniature CubeSats for education and research; and military/defense satellites.

Loading next visibility...
Identifier
60350, 2024-136X
Orbit
LEO
Country
Flag of USUS
Related business
Manufacturer
SpaceX/Seattle
Mission
Operational Commercial Communications
Bus & Motor
STARLINK V2M, Unknown motor
Mass
730 kg wet, ~700 kg dry
Launch date (UTC)
2024-08-02 (1 year ago)
Launch vehicle
FALCON 9
Launch site
Air Force Eastern Test Range (AFETR)
Object type
Payload
Rocket body
Debris
Shape & HBR
Box + 2 Pan, 14.5 m
Radar Cross Section
33.884 m², Large (>1 m²)

Expand to show TLE details & history
Last TLE update: 15 hours ago

TLE from 15 hours ago
0 STARLINK-32076
1 60350U 24136X   25258.48274405  .00013387  00000-0  46348-3 0  9996
2 60350  53.1600 169.1934 0001715  83.7935 276.3261 15.30188437 62840
Epoch: 2025-09-15T11:35Z
TLE epoch observation values (Epoch: 2025-09-15T11:35:09.085Z)
Latitude
-0.00005°
Longitude
0.71875°
Altitude
476.02 km
Speed
7.629 km/s
True Right ascension
11h 16m 46s
True Declination
0° 00' 00"
Sunlit
Object was in daylight at epoch
Visualization orbit readout
Latitude
Unknown
Longitude
Unknown
Altitude
Unknown
Speed
Unknown
Apparent Right ascension
Unknown
Apparent Declination
Unknown
Sunlit
N/A
Visualization observer readout
Local Sidereal Time
18:53:34
Azimuth
Unknown
Elevation
Unknown
Doppler factor
Unknown
Orbital elements
Apogee altitude
476.681 km
Perigee altitude
474.331 km
Semi-major axis
6,853.643 km
Eccentricity
0.00017
Inclination
53.16°
RAAN
169.1934°
Arg. of periapsis
83.7935°
True anomaly
276.30657°
Mean anomaly
276.3261°
Eccentric anomaly
276.31633°
Mean motion
3.82526 °/min
Orbital period
94.11 mins
BSTAR
0.00046348
Loading maneuver chart data...
Computing Atmospheric mass density...
Loading historical data...
Loading historical data...
Loading historical data...
Loading historical data...
Loading historical data...
Loading historical data...
Loading historical data...

Documentation

Showing up to 5 results
|